Time,TemperatureF,DewpointF,PressureIn,WindDirection,WindDirectionDegrees,WindSpeedMPH,WindSpeedGustMPH,Humidity,HourlyPrecipIn,Conditions,Clouds,dailyrainin,SoftwareType,DateUTC
2013-02-14 00:05:00,32.7,30.0,29.59,NNW,328,4.0,-999.0,91,-99.99,,,0.00,weatherlink.com 1.10,2013-02-14 06:05:00,
2013-02-14 00:19:00,32.6,30.0,29.60,NNW,328,4.0,-999.0,91,-99.99,,,0.00,weatherlink.com 1.10,2013-02-14 06:19:00,
2013-02-14 00:33:00,32.4,30.0,29.61,NNW,348,11.0,-999.0,91,-99.99,,,0.00,weatherlink.com 1.10,2013-02-14 06:33:00,
2013-02-14 00:48:00,32.2,30.0,29.62,NW,323,6.0,-999.0,91,-99.99,,,0.00,weatherlink.com 1.10,2013-02-14 06:48:00,
2013-02-14 01:02:00,32.1,30.0,29.62,NW,322,3.0,-999.0,91,-99.99,,,0.00,weatherlink.com 1.10,2013-02-14 07:02:00,
2013-02-14 01:16:00,32.1,30.0,29.63,WNW,303,5.0,-999.0,91,-99.99,,,0.00,weatherlink.com 1.10,2013-02-14 07:16:00,
2013-02-14 01:31:00,32.1,30.0,29.64,NW,324,4.0,-999.0,91,-99.99,,,0.00,weatherlink.com 1.10,2013-02-14 07:31:00,
2013-02-14 01:45:00,32.0,30.0,29.65,NNW,337,4.0,-999.0,91,-99.99,,,0.00,weatherlink.com 1.10,2013-02-14 07:45:00,
2013-02-14 01:59:00,32.0,30.0,29.66,NW,318,9.0,-999.0,91,-99.99,,,0.00,weatherlink.com 1.10,2013-02-14 07:59:00,
2013-02-14 02:14:00,31.8,29.0,29.67,NW,318,5.0,-999.0,91,-99.99,,,0.00,weatherlink.com 1.10,2013-02-14 08:14:00,
2013-02-14 02:28:00,31.4,29.0,29.68,NW,310,7.0,-999.0,90,-99.99,,,0.00,weatherlink.com 1.10,2013-02-14 08:28:00,
2013-02-14 02:43:00,30.9,28.0,29.69,NW,325,5.0,-999.0,90,-99.99,,,0.00,weatherlink.com 1.10,2013-02-14 08:43:00,
2013-02-14 02:57:00,30.6,28.0,29.70,NNE,12,6.0,-999.0,90,-99.99,,,0.00,weatherlink.com 1.10,2013-02-14 08:57:00,
2013-02-14 03:11:00,30.4,28.0,29.71,NW,322,5.0,-999.0,90,-99.99,,,0.00,weatherlink.com 1.10,2013-02-14 09:11:00,
2013-02-14 03:26:00,30.2,27.0,29.71,NW,320,5.0,-999.0,89,-99.99,,,0.00,weatherlink.com 1.10,2013-02-14 09:26:00,
2013-02-14 03:40:00,29.9,27.0,29.73,NW,317,3.0,-999.0,89,-99.99,,,0.00,weatherlink.com 1.10,2013-02-14 09:40:00,
2013-02-14 03:54:00,29.6,27.0,29.73,NW,308,4.0,-999.0,89,-99.99,,,0.00,weatherlink.com 1.10,2013-02-14 09:54:00,
2013-02-14 17:19:00,24.0,8.0,30.09,WNW,298,7.0,-999.0,50,-99.99,,,0.06,weatherlink.com 1.10,2013-02-14 23:19:00,
2013-02-14 17:33:00,23.5,10.0,30.09,WNW,293,11.0,-999.0,55,-99.99,,,0.06,weatherlink.com 1.10,2013-02-14 23:33:00,
2013-02-14 17:47:00,23.1,8.0,30.10,NW,316,4.0,-999.0,53,-99.99,,,0.06,weatherlink.com 1.10,2013-02-14 23:47:00,
2013-02-14 18:01:00,22.8,7.0,30.11,WNW,300,6.0,-999.0,50,-99.99,,,0.06,weatherlink.com 1.10,2013-02-15 00:01:00,
2013-02-14 18:16:00,22.7,7.0,30.12,NW,307,6.0,-999.0,50,-99.99,,,0.06,weatherlink.com 1.10,2013-02-15 00:16:00,
2013-02-14 18:30:00,22.2,7.0,30.12,NW,306,4.0,-999.0,51,-99.99,,,0.06,weatherlink.com 1.10,2013-02-15 00:30:00,
2013-02-14 18:45:00,21.9,7.0,30.13,NNW,333,4.0,-999.0,51,-99.99,,,0.06,weatherlink.com 1.10,2013-02-15 00:45:00,
2013-02-14 18:59:00,21.5,7.0,30.14,WNW,286,7.0,-999.0,52,-99.99,,,0.06,weatherlink.com 1.10,2013-02-15 00:59:00,
2013-02-14 19:14:00,21.0,7.0,30.15,WNW,297,4.0,-999.0,53,-99.99,,,0.06,weatherlink.com 1.10,2013-02-15 01:14:00,
2013-02-14 19:28:00,20.2,6.0,30.16,WNW,287,4.0,-999.0,54,-99.99,,,0.06,weatherlink.com 1.10,2013-02-15 01:28:00,
2013-02-14 19:42:00,19.2,6.0,30.17,WNW,290,3.0,-999.0,56,-99.99,,,0.06,weatherlink.com 1.10,2013-02-15 01:42:00,
2013-02-14 19:56:00,19.0,6.0,30.16,WNW,286,5.0,-999.0,56,-99.99,,,0.06,weatherlink.com 1.10,2013-02-15 01:56:00,
2013-02-14 20:11:00,18.9,6.0,30.17,WNW,287,5.0,-999.0,57,-99.99,,,0.06,weatherlink.com 1.10,2013-02-15 02:11:00,
2013-02-14 20:25:00,18.3,6.0,30.18,WNW,285,2.0,-999.0,58,-99.99,,,0.06,weatherlink.com 1.10,2013-02-15 02:25:00,
2013-02-14 20:39:00,17.4,6.0,30.19,WNW,298,6.0,-999.0,59,-99.99,,,0.06,weatherlink.com 1.10,2013-02-15 02:39:00,
2013-02-14 20:54:00,17.1,6.0,30.20,NW,310,7.0,-999.0,61,-99.99,,,0.06,weatherlink.com 1.10,2013-02-15 02:54:00,
2013-02-14 21:08:00,16.5,6.0,30.20,WNW,290,8.0,-999.0,63,-99.99,,,0.06,weatherlink.com 1.10,2013-02-15 03:08:00,
2013-02-14 21:22:00,16.1,6.0,30.20,West,264,10.0,-999.0,65,-99.99,,,0.06,weatherlink.com 1.10,2013-02-15 03:22:00,
2013-02-14 21:37:00,15.8,6.0,30.21,West,279,7.0,-999.0,66,-99.99,,,0.06,weatherlink.com 1.10,2013-02-15 03:37:00,
2013-02-14 21:51:00,15.4,6.0,30.21,West,280,6.0,-999.0,67,-99.99,,,0.06,weatherlink.com 1.10,2013-02-15 03:51:00,
2013-02-14 22:06:00,15.0,6.0,30.21,West,272,5.0,-999.0,67,-99.99,,,0.06,weatherlink.com 1.10,2013-02-15 04:06:00,
2013-02-14 22:20:00,14.6,6.0,30.21,WNW,291,7.0,-999.0,67,-99.99,,,0.06,weatherlink.com 1.10,2013-02-15 04:20:00,
2013-02-14 22:34:00,14.0,5.0,30.21,WNW,285,3.0,-999.0,67,-99.99,,,0.06,weatherlink.com 1.10,2013-02-15 04:34:00,
2013-02-14 22:49:00,12.8,4.0,30.22,West,279,6.0,-999.0,68,-99.99,,,0.06,weatherlink.com 1.10,2013-02-15 04:49:00,
2013-02-14 23:03:00,12.1,4.0,30.23,West,281,5.0,-999.0,68,-99.99,,,0.06,weatherlink.com 1.10,2013-02-15 05:03:00,
2013-02-14 23:31:00,10.7,2.0,30.23,West,280,7.0,-999.0,68,-99.99,,,0.06,weatherlink.com 1.10,2013-02-15 05:31:00,
2013-02-14 23:46:00,10.1,1.0,30.23,West,280,3.0,-999.0,67,-99.99,,,0.06,weatherlink.com 1.10,2013-02-15 05:46:00,